Weather History for Yankton, SD

Change the Weather History Date:

Thursday, January 10, 2013

  Actual Average Record
Temperature  
Mean Temperature 34 °F -  
Max Temperature 39 °F 25 °F 59 °F (2012)
Min Temperature 28 °F 2 °F -22 °F (1974)
Degree Days  
Heating Degree Days 32    
Moisture  
Dew Point 30 °F    
Average Humidity 83    
Maximum Humidity 100    
Minimum Humidity 61    
Precipitation  
Precipitation 0.04 in - - ()
Sea Level Pressure  
Sea Level Pressure 29.92 in    
Wind  
Wind Speed 11 mph (SE)    
Max Wind Speed 16 mph    
Max Gust Speed 23 mph    
Visibility 9 miles    
Events      
Averages and records for this station are not official NWS values.
T = Trace of Precipitation, MM = Missing Value Source: NWS Daily Summary

Daily Weather History Graph

Daily Weather History Graph

Search for Another Location

Airport:

Trip Planner

Search our weather history database for the weather conditions in past years. The results will help you decide how hot, cold, wet, or windy it might be!

Date:

Astronomy

Jan. 10, 2013 Rise Set
Actual Time 7:59 AM CST 5:15 PM CST
Civil Twilight 7:27 AM CST 5:46 PM CST
Nautical Twilight 6:52 AM CST 6:22 PM CST
Astronomical Twilight 6:18 AM CST 6:56 PM CST
Moon 6:40 AM CST (1/10) 4:24 PM CST (1/10)
Length of Visible Light 10h 19m
Length of Day
9h 15m
Waning Crescent, 2% of the Moon is Illuminated
Jan 10
Waning Crescent
Jan 11
New
Jan 18
First Quarter
Jan 26
Full
Feb 3
Last Quarter

Hourly Weather History & Observations

Time (CST) Temp. Windchill Dew Point Humidity Pressure Visibility Wind Dir Wind Speed Gust Speed Precip Events Conditions
12:15 AM 39.2 °F 31.2 °F 28.4 °F 65% 30.21 in 10.0 mi South 13.8 mph 23.0 mph N/A   Clear
12:35 AM 39.2 °F 31.2 °F 26.6 °F 61% 30.21 in 10.0 mi South 13.8 mph - N/A   Clear
12:55 AM 39.2 °F 33.0 °F 28.4 °F 65% 30.20 in 10.0 mi South 9.2 mph 19.6 mph N/A   Clear
1:15 AM 39.2 °F 30.8 °F 28.4 °F 65% 30.19 in 10.0 mi South 15.0 mph 20.7 mph N/A   Clear
1:35 AM 39.2 °F 31.2 °F 28.4 °F 65% 30.19 in 10.0 mi South 13.8 mph 20.7 mph N/A   Clear
1:55 AM 39.2 °F 32.0 °F 28.4 °F 65% 30.19 in 10.0 mi South 11.5 mph 18.4 mph N/A   Clear
2:15 AM 37.4 °F 29.8 °F 28.4 °F 70% 30.19 in 10.0 mi South 11.5 mph 17.3 mph N/A   Clear
2:35 AM 37.4 °F 30.8 °F 28.4 °F 70% 30.18 in 10.0 mi South 9.2 mph - N/A   Clear
2:55 AM 37.4 °F 29.8 °F 28.4 °F 70% 30.18 in 10.0 mi South 11.5 mph - N/A   Clear
3:15 AM 37.4 °F 30.3 °F 28.4 °F 70% 30.18 in 10.0 mi SSE 10.4 mph - N/A   Clear
3:35 AM 37.4 °F 29.8 °F 28.4 °F 70% 30.17 in 10.0 mi SSE 11.5 mph - N/A   Clear
3:55 AM 35.6 °F 28.6 °F 28.4 °F 75% 30.16 in 10.0 mi SSE 9.2 mph - N/A   Clear
4:15 AM 33.8 °F 27.0 °F 26.6 °F 75% 30.16 in 10.0 mi SSE 8.1 mph - N/A   Clear
4:35 AM 33.8 °F 27.0 °F 26.6 °F 75% 30.15 in 10.0 mi SSE 8.1 mph - N/A   Clear
4:55 AM 35.6 °F 27.5 °F 28.4 °F 75% 30.14 in 10.0 mi South 11.5 mph - N/A   Clear
5:15 AM 33.8 °F 27.0 °F 26.6 °F 75% 30.13 in 10.0 mi SE 8.1 mph - N/A   Clear
5:35 AM 33.8 °F 27.7 °F 26.6 °F 75% 30.13 in 10.0 mi SE 6.9 mph - N/A   Clear
6:15 AM 32.0 °F 25.6 °F 26.6 °F 80% 30.12 in 10.0 mi SE 6.9 mph - N/A   Clear
6:35 AM 30.2 °F 23.4 °F 24.8 °F 80% 30.11 in 10.0 mi SE 6.9 mph - N/A   Clear
6:55 AM 28.4 °F 21.2 °F 24.8 °F 86% 30.10 in 10.0 mi ESE 6.9 mph - N/A   Clear
7:15 AM 28.4 °F 18.0 °F 24.8 °F 86% 30.10 in 10.0 mi SSE 12.7 mph - N/A   Clear
7:55 AM 30.2 °F 22.6 °F 26.6 °F 86% 30.09 in 10.0 mi SE 8.1 mph - N/A   Clear
8:35 AM 30.2 °F 25.4 °F 24.8 °F 80% 30.09 in 10.0 mi ESE 4.6 mph - N/A   Clear
8:55 AM 30.2 °F 24.3 °F 24.8 °F 80% 30.08 in 10.0 mi East 5.8 mph - N/A   Clear
9:15 AM 32.0 °F 26.4 °F 26.6 °F 80% 30.07 in 10.0 mi East 5.8 mph - N/A   Clear
9:35 AM 32.0 °F 26.4 °F 26.6 °F 80% 30.05 in 10.0 mi East 5.8 mph - N/A   Clear
9:55 AM 33.8 °F 27.7 °F 26.6 °F 75% 30.04 in 10.0 mi East 6.9 mph - N/A   Clear
10:15 AM 33.8 °F 27.7 °F 28.4 °F 81% 30.02 in 10.0 mi East 6.9 mph - N/A   Clear
10:35 AM 35.6 °F 29.2 °F 28.4 °F 75% 30.01 in 10.0 mi East 8.1 mph - N/A   Clear
10:55 AM 35.6 °F 30.7 °F 26.6 °F 70% 30.00 in 10.0 mi East 5.8 mph - N/A   Clear
11:15 AM 35.6 °F 30.7 °F 28.4 °F 75% 29.99 in 10.0 mi East 5.8 mph - N/A   Mostly Cloudy
11:35 AM 37.4 °F 29.8 °F 28.4 °F 70% 29.97 in 10.0 mi SE 11.5 mph - N/A   Overcast
11:55 AM 37.4 °F 30.3 °F 26.6 °F 65% 29.95 in 10.0 mi SSE 10.4 mph 17.3 mph N/A   Overcast
12:15 PM 37.4 °F 30.8 °F 26.6 °F 65% 29.94 in 10.0 mi SE 9.2 mph - N/A   Overcast
12:35 PM 37.4 °F 30.3 °F 26.6 °F 65% 29.93 in 10.0 mi SE 10.4 mph 16.1 mph N/A   Overcast
12:55 PM 37.4 °F 28.9 °F 30.2 °F 75% 29.91 in 10.0 mi SSE 13.8 mph 18.4 mph N/A   Overcast
1:35 PM 35.6 °F 28.6 °F 32.0 °F 87% 29.87 in 10.0 mi ESE 9.2 mph - 0.04 in   Overcast
1:55 PM 35.6 °F 28.6 °F 32.0 °F 87% 29.86 in 10.0 mi ESE 9.2 mph - 0.04 in   Overcast
2:15 PM 35.6 °F 28.0 °F 32.0 °F 87% 29.85 in 10.0 mi ESE 10.4 mph - N/A   Overcast
2:35 PM 35.6 °F 29.2 °F 32.0 °F 87% 29.84 in 10.0 mi ESE 8.1 mph - N/A   Mostly Cloudy
2:55 PM 35.6 °F 28.6 °F 33.8 °F 93% 29.83 in 9.0 mi ESE 9.2 mph - N/A   Overcast
3:15 PM 35.6 °F 27.1 °F 33.8 °F 93% 29.81 in 10.0 mi ESE 12.7 mph - N/A   Overcast
3:35 PM 35.6 °F 28.0 °F 33.8 °F 93% 29.80 in 8.0 mi ESE 10.4 mph - N/A   Overcast
3:55 PM 33.8 °F 24.8 °F 32.0 °F 93% 29.77 in 10.0 mi ESE 12.7 mph - N/A   Overcast
4:15 PM 33.8 °F 26.4 °F 33.8 °F 100% 29.74 in 10.0 mi East 9.2 mph - N/A   Overcast
4:35 PM 33.8 °F 24.8 °F 32.0 °F 93% 29.75 in 10.0 mi ESE 12.7 mph - N/A   Overcast
4:55 PM 33.8 °F 24.8 °F 32.0 °F 93% 29.75 in 10.0 mi ESE 12.7 mph - N/A   Overcast
5:15 PM 33.8 °F 24.8 °F 33.8 °F 100% 29.75 in 10.0 mi SE 12.7 mph - N/A   Overcast
5:35 PM 35.6 °F 25.9 °F 33.8 °F 93% 29.75 in 8.0 mi SE 16.1 mph - N/A   Overcast
5:55 PM 35.6 °F 25.9 °F 33.8 °F 93% 29.74 in 8.0 mi SE 16.1 mph - N/A   Overcast
6:15 PM 33.8 °F 25.3 °F 32.0 °F 93% 29.74 in 7.0 mi SSE 11.5 mph - N/A   Overcast
6:35 PM 35.6 °F 26.6 °F 33.8 °F 93% 29.73 in 5.0 mi SSE 13.8 mph - N/A   Overcast
6:55 PM 35.6 °F 26.6 °F 33.8 °F 93% 29.71 in 3.0 mi SSE 13.8 mph - N/A   Overcast
7:15 PM 35.6 °F 26.6 °F 33.8 °F 93% 29.70 in 3.0 mi SSE 13.8 mph - N/A   Overcast
7:35 PM 33.8 °F 25.8 °F 33.8 °F 100% 29.70 in 3.0 mi SSE 10.4 mph - N/A   Overcast
7:55 PM 33.8 °F 25.3 °F 33.8 °F 100% 29.69 in 4.0 mi SSE 11.5 mph - N/A   Overcast
8:15 PM 35.6 °F 27.5 °F 33.8 °F 93% 29.67 in 5.0 mi SE 11.5 mph - N/A   Overcast
8:35 PM 33.8 °F 24.3 °F 33.8 °F 100% 29.66 in 5.0 mi SE 13.8 mph - N/A   Overcast
9:15 PM 33.8 °F 24.8 °F 33.8 °F 100% 29.66 in 4.0 mi SE 12.7 mph - N/A   Overcast
9:35 PM 35.6 °F 27.5 °F 33.8 °F 93% 29.66 in 8.0 mi SSE 11.5 mph 17.3 mph N/A   Overcast
9:55 PM 35.6 °F 28.0 °F 33.8 °F 93% 29.65 in 7.0 mi SSE 10.4 mph - N/A   Overcast
10:15 PM 35.6 °F 27.5 °F 33.8 °F 93% 29.62 in 5.0 mi SE 11.5 mph - N/A   Overcast
10:35 PM 35.6 °F 28.6 °F 33.8 °F 93% 29.61 in 6.0 mi SE 9.2 mph - N/A   Overcast
10:55 PM 35.6 °F 28.0 °F 33.8 °F 93% 29.60 in 7.0 mi SSE 10.4 mph - N/A   Overcast
11:15 PM 35.6 °F 28.0 °F 35.6 °F 100% 29.60 in 8.0 mi SSE 10.4 mph - N/A   Overcast
11:35 PM 35.6 °F 29.9 °F 35.6 °F 100% 29.59 in 10.0 mi SSE 6.9 mph - N/A   Overcast
11:55 PM 35.6 °F 28.0 °F 35.6 °F 100% 29.59 in 10.0 mi South 10.4 mph - N/A   Overcast